WESTFORD NEEDLES, 21660

Orbit data source: Space-Track

WESTFORD NEEDLES, 21660 is space debris in LEO originally from a launch on Thu, 09 May 1963 UTC launched from the Air Force Western Test Range (AFWTR). Debris objects in space refer to the collection of defunct objects orbiting the Earth. Examples of debris include non-operational satellites, rocket bodies, and fragments generated from explosions, collisions, or faulty payload assembly.

Loading next visibility...
Identifier
21660, 1963-014FG
Orbit
LEO
Country
Flag of USUS
Related business
Manufacturer
Unknown
Mission
Spacecraft
Bus & Motor
Unknown
Mass
Unknown
Launch date (UTC)
1963-05-09 (63 years ago)
Launch vehicle
Unknown
Launch site
Air Force Western Test Range (AFWTR)
Object type
Payload
Rocket body
Debris
Shape & HBR
Unknown shape, 0.2 m
Radar Cross Section
Medium (>0.1 m² and <1 m²)

Expand to show TLE details & history
Last TLE update: 3 days ago

TLE from 3 days ago
0 WESTFORD NEEDLES
1 21660U 63014FG  26122.63570866  .00001534  00000-0  21940+0 0  9991
2 21660  86.7246 266.9101 1439392  59.5686 325.0638  8.77667043 61704
Epoch: 2026-05-02T15:15Z
TLE epoch observation values (Epoch: 2026-05-02T15:15:25.228Z)
Latitude
13.58641°
Longitude
178.29312°
Altitude
2,460.522 km
Speed
7.077 km/s
True Right ascension
17h 50m 47s
True Declination
13° 31' 23"
Sunlit
Object was in daylight at epoch
Visualization orbit readout
Latitude
Unknown
Longitude
Unknown
Altitude
Unknown
Speed
Unknown
Apparent Right ascension
Unknown
Apparent Declination
Unknown
Sunlit
N/A
Visualization observer readout
Local Sidereal Time
00:36:40
Azimuth
Unknown
Elevation
Unknown
Doppler factor
Unknown
Orbital elements
Apogee altitude
4,975.963 km
Perigee altitude
2,118.643 km
Semi-major axis
9,925.44 km
Eccentricity
0.14394
Inclination
86.7246°
RAAN
266.9101°
Arg. of periapsis
59.5686°
True anomaly
314.06646°
Mean anomaly
325.0638°
Eccentric anomaly
319.73331°
Mean motion
2.19492 °/min
Orbital period
164.02 mins
BSTAR
0.2194
Loading maneuver chart data...
Computing Atmospheric mass density...

Documentation

Showing up to 5 results
|